| time (UTC) | temp C | wind direction | speed KPH | gust KPH | rain 1hr cm | rain 24hr cm | rain mn cm | humidity % | barometer mb |
| 20260506095003 | 11 | 163 | 6.4 | 12.9 | 0.00 | 0.00 | 0.00 | 55 | 1015.1 |
| 20260506094803 | 11 | 173 | 6.4 | 12.9 | 0.00 | 0.00 | 0.00 | 54 | 1015.0 |
| 20260506094603 | 11 | 179 | 4.8 | 11.3 | 0.00 | 0.00 | 0.00 | 56 | 1015.0 |
| 20260506094403 | 11 | 177 | 6.4 | 12.9 | 0.00 | 0.00 | 0.00 | 57 | 1015.1 |
| 20260506094203 | 11 | 169 | 6.4 | 12.9 | 0.00 | 0.00 | 0.00 | 53 | 1015.0 |
| 20260506094003 | 11 | 161 | 6.4 | 12.9 | 0.00 | 0.00 | 0.00 | 54 | 1015.0 |
| 20260506093803 | 11 | 153 | 6.4 | 12.9 | 0.00 | 0.00 | 0.00 | 55 | 1015.0 |
| 20260506093603 | 11 | 151 | 6.4 | 11.3 | 0.00 | 0.00 | 0.00 | 58 | 1015.0 |
| 20260506093403 | 11 | 148 | 6.4 | 11.3 | 0.00 | 0.00 | 0.00 | 55 | 1015.1 |
| 20260506093204 | 11 | 160 | 6.4 | 17.7 | 0.00 | 0.00 | 0.00 | 56 | 1015.0 |
| 20260506093003 | 11 | 155 | 6.4 | 17.7 | 0.00 | 0.00 | 0.00 | 55 | 1015.0 |
| 20260506092803 | 11 | 154 | 6.4 | 17.7 | 0.00 | 0.00 | 0.00 | 57 | 1015.1 |
| 20260506092605 | 11 | 150 | 6.4 | 17.7 | 0.00 | 0.00 | 0.00 | 57 | 1015.0 |
| 20260506092403 | 10 | 148 | 6.4 | 17.7 | 0.00 | 0.00 | 0.00 | 58 | 1015.1 |
| 20260506092203 | 10 | 151 | 6.4 | 12.9 | 0.00 | 0.00 | 0.00 | 58 | 1015.0 |
| 20260506092003 | 10 | 171 | 6.4 | 12.9 | 0.00 | 0.00 | 0.00 | 58 | 1015.1 |
| 20260506091803 | 10 | 186 | 4.8 | 12.9 | 0.00 | 0.00 | 0.00 | 58 | 1015.2 |
| 20260506091603 | 10 | 203 | 4.8 | 12.9 | 0.00 | 0.00 | 0.00 | 58 | 1015.2 |
| 20260506091403 | 10 | 207 | 4.8 | 9.7 | 0.00 | 0.00 | 0.00 | 55 | 1015.3 |
| 20260506091203 | 10 | 195 | 4.8 | 11.3 | 0.00 | 0.00 | 0.00 | 55 | 1015.4 |
| 20260506091004 | 10 | 179 | 4.8 | 16.1 | 0.00 | 0.00 | 0.00 | 56 | 1015.4 |
| 20260506090803 | 10 | 182 | 4.8 | 16.1 | 0.00 | 0.00 | 0.00 | 57 | 1015.5 |
| 20260506090603 | 10 | 186 | 4.8 | 16.1 | 0.00 | 0.00 | 0.00 | 57 | 1015.5 |
| 20260506090403 | 10 | 199 | 4.8 | 16.1 | 0.00 | 0.00 | 0.00 | 57 | 1015.4 |
| 20260506090203 | 10 | 206 | 4.8 | 16.1 | 0.00 | 0.00 | 0.00 | 60 | 1015.5 |
| 20260506090003 | 10 | 219 | 3.2 | 9.7 | 0.00 | 0.00 | 0.00 | 58 | 1015.4 |
| 20260506085804 | 10 | 206 | 3.2 | 9.7 | 0.00 | 0.00 | 0.00 | 56 | 1015.5 |
| 20260506085603 | 10 | 188 | 3.2 | 9.7 | 0.00 | 0.00 | 0.00 | 58 | 1015.5 |
| 20260506085405 | 10 | 168 | 3.2 | 9.7 | 0.00 | 0.00 | 0.00 | 58 | 1015.5 |
| 20260506085204 | 10 | 153 | 3.2 | 9.7 | 0.00 | 0.00 | 0.00 | 59 | 1015.5 |
| 20260506085005 | 10 | 150 | 3.2 | 9.7 | 0.00 | 0.00 | 0.00 | 60 | 1015.6 |
| 20260506084804 | 10 | 146 | 4.8 | 11.3 | 0.00 | 0.00 | 0.00 | 61 | 1015.6 |
| 20260506084604 | 10 | 147 | 4.8 | 12.9 | 0.00 | 0.00 | 0.00 | 61 | 1015.6 |
| 20260506084404 | 10 | 152 | 6.4 | 12.9 | 0.00 | 0.00 | 0.00 | 60 | 1015.6 |
| 20260506084205 | 10 | 152 | 6.4 | 12.9 | 0.00 | 0.00 | 0.00 | 62 | 1015.6 |
| 20260506084004 | 10 | 152 | 6.4 | 12.9 | 0.00 | 0.00 | 0.00 | 62 | 1015.6 |
| 20260506083803 | 10 | 152 | 6.4 | 12.9 | 0.00 | 0.00 | 0.00 | 63 | 1015.7 |
| 20260506083603 | 10 | 148 | 4.8 | 12.9 | 0.00 | 0.00 | 0.00 | 64 | 1015.7 |
| 20260506083403 | 10 | 143 | 4.8 | 12.9 | 0.00 | 0.00 | 0.00 | 63 | 1015.6 |
| 20260506083203 | 10 | 146 | 4.8 | 12.9 | 0.00 | 0.00 | 0.00 | 62 | 1015.6 |
| 20260506083003 | 10 | 151 | 4.8 | 12.9 | 0.00 | 0.00 | 0.00 | 63 | 1015.6 |
| 20260506082804 | 10 | 157 | 4.8 | 12.9 | 0.00 | 0.00 | 0.00 | 62 | 1015.6 |
| 20260506082604 | 10 | 165 | 4.8 | 12.9 | 0.00 | 0.00 | 0.00 | 64 | 1015.6 |
| 20260506082403 | 10 | 175 | 3.2 | 9.7 | 0.00 | 0.00 | 0.00 | 64 | 1015.6 |
| 20260506082205 | 10 | 177 | 4.8 | 11.3 | 0.00 | 0.00 | 0.00 | 65 | 1015.6 |
| 20260506082004 | 9 | 176 | 3.2 | 11.3 | 0.00 | 0.00 | 0.00 | 65 | 1015.6 |
| 20260506081803 | 9 | 173 | 3.2 | 11.3 | 0.00 | 0.00 | 0.00 | 65 | 1015.6 |
| 20260506081603 | 9 | 169 | 4.8 | 11.3 | 0.00 | 0.00 | 0.00 | 64 | 1015.6 |
| 20260506081404 | 9 | 161 | 3.2 | 11.3 | 0.00 | 0.00 | 0.00 | 64 | 1015.6 |
| 20260506081203 | 9 | 157 | 3.2 | 9.7 | 0.00 | 0.00 | 0.00 | 65 | 1015.6 |
| 20260506081003 | 9 | 159 | 3.2 | 9.7 | 0.00 | 0.00 | 0.00 | 67 | 1015.6 |
| 20260506080804 | 9 | 162 | 3.2 | 9.7 | 0.00 | 0.00 | 0.00 | 68 | 1015.6 |
| 20260506080603 | 9 | 175 | 3.2 | 9.7 | 0.00 | 0.00 | 0.00 | 68 | 1015.6 |
| 20260506080404 | 8 | 190 | 3.2 | 9.7 | 0.00 | 0.00 | 0.00 | 69 | 1015.6 |
| 20260506080204 | 8 | 202 | 1.6 | 6.4 | 0.00 | 0.00 | 0.00 | 68 | 1015.7 |
| 20260506073403 | 7 | 352 | 1.6 | 6.4 | 0.00 | 0.00 | 0.00 | 72 | 1015.8 |
| 20260506073203 | 7 | 351 | 1.6 | 6.4 | 0.00 | 0.00 | 0.00 | 73 | 1015.9 |
| 20260506073003 | 6 | 350 | 1.6 | 6.4 | 0.00 | 0.00 | 0.00 | 73 | 1015.8 |
| 20260506072804 | 6 | 350 | 1.6 | 6.4 | 0.00 | 0.00 | 0.00 | 74 | 1015.9 |
| 20260506072603 | 6 | 349 | 1.6 | 3.2 | 0.00 | 0.00 | 0.00 | 72 | 1015.9 |
| 20260506072404 | 6 | 349 | 1.6 | 3.2 | 0.00 | 0.00 | 0.00 | 71 | 1015.9 |
| 20260506072203 | 6 | 349 | 1.6 | 3.2 | 0.00 | 0.00 | 0.00 | 71 | 1016.0 |
| 20260506072003 | 6 | 349 | 1.6 | 3.2 | 0.00 | 0.00 | 0.00 | 71 | 1015.9 |
| 20260506071803 | 6 | 349 | 1.6 | 3.2 | 0.00 | 0.00 | 0.00 | 72 | 1015.9 |
| 20260506071603 | 6 | 349 | 1.6 | 6.4 | 0.00 | 0.00 | 0.00 | 72 | 1015.9 |
| 20260506071403 | 6 | 349 | 1.6 | 6.4 | 0.00 | 0.00 | 0.00 | 72 | 1016.0 |
| 20260506071203 | 6 | 349 | 1.6 | 6.4 | 0.00 | 0.00 | 0.00 | 73 | 1015.9 |
| 20260506071004 | 6 | 349 | 1.6 | 6.4 | 0.00 | 0.00 | 0.00 | 73 | 1015.9 |
| 20260506070803 | 6 | 349 | 1.6 | 6.4 | 0.00 | 0.00 | 0.00 | 74 | 1016.0 |
| 20260506070604 | 5 | 349 | 3.2 | 6.4 | 0.00 | 0.00 | 0.00 | 74 | 1016.0 |
| 20260506070404 | 5 | 349 | 3.2 | 6.4 | 0.00 | 0.00 | 0.00 | 74 | 1016.0 |
| 20260506070204 | 5 | 349 | 3.2 | 6.4 | 0.00 | 0.00 | 0.00 | 74 | 1016.0 |
| 20260506062404 | 3 | 327 | 1.6 | 6.4 | 0.00 | 0.03 | 0.00 | 81 | 1015.9 |
| 20260506062204 | 3 | 326 | 1.6 | 6.4 | 0.00 | 0.03 | 0.00 | 81 | 1016.0 |
| 20260506062004 | 3 | 326 | 1.6 | 3.2 | 0.00 | 0.03 | 0.00 | 82 | 1015.9 |
| 20260506061803 | 3 | 326 | 1.6 | 3.2 | 0.00 | 0.03 | 0.00 | 83 | 1015.9 |
| 20260506061603 | 2 | 326 | 1.6 | 3.2 | 0.00 | 0.03 | 0.00 | 83 | 1015.9 |
| 20260506061404 | 2 | 326 | 1.6 | 3.2 | 0.00 | 0.03 | 0.00 | 83 | 1015.9 |
| 20260506061204 | 2 | 326 | 1.6 | 3.2 | 0.00 | 0.03 | 0.00 | 83 | 1015.9 |
| 20260506061003 | 2 | 326 | 1.6 | 3.2 | 0.00 | 0.03 | 0.00 | 83 | 1015.8 |
| 20260506060803 | 2 | 326 | 1.6 | 3.2 | 0.00 | 0.03 | 0.00 | 83 | 1015.9 |
| 20260506060604 | 2 | 326 | 1.6 | 3.2 | 0.00 | 0.03 | 0.00 | 83 | 1015.9 |
| 20260506060404 | 2 | 326 | 1.6 | 3.2 | 0.00 | 0.03 | 0.00 | 84 | 1016.0 |
| 20260506060203 | 2 | 326 | 1.6 | 3.2 | 0.00 | 0.03 | 0.00 | 84 | 1016.0 |
| 20260506051404 | 0 | 0 | 0.0 | 0.0 | 0.00 | 0.03 | 0.00 | 88 | 1016.2 |
| 20260506051203 | 0 | 0 | 0.0 | 0.0 | 0.00 | 0.03 | 0.00 | 88 | 1016.2 |
| 20260506051004 | 0 | 325 | 0.0 | 1.6 | 0.00 | 0.03 | 0.00 | 88 | 1016.2 |
| 20260506050803 | 0 | 325 | 0.0 | 1.6 | 0.00 | 0.03 | 0.00 | 89 | 1016.2 |
| 20260506050605 | 0 | 325 | 0.0 | 1.6 | 0.00 | 0.03 | 0.00 | 89 | 1016.1 |
| 20260506050403 | 0 | 325 | 0.0 | 1.6 | 0.00 | 0.03 | 0.00 | 89 | 1016.2 |
| 20260506050203 | 0 | 325 | 0.0 | 1.6 | 0.00 | 0.03 | 0.00 | 89 | 1016.2 |
| 20260506045003 | -1 | 0 | 0.0 | 0.0 | 0.00 | 0.03 | 0.00 | 88 | 1016.2 |
| 20260506044803 | -1 | 325 | 0.0 | 1.6 | 0.00 | 0.03 | 0.00 | 88 | 1016.2 |
| 20260506044604 | -1 | 325 | 0.0 | 1.6 | 0.00 | 0.03 | 0.00 | 88 | 1016.2 |
| 20260506044404 | -1 | 325 | 0.0 | 1.6 | 0.00 | 0.03 | 0.00 | 88 | 1016.3 |
| 20260506044204 | -1 | 325 | 0.0 | 1.6 | 0.00 | 0.03 | 0.00 | 88 | 1016.3 |
| 20260506044003 | -1 | 325 | 0.0 | 1.6 | 0.00 | 0.03 | 0.00 | 88 | 1016.2 |
| 20260506043803 | -1 | 0 | 0.0 | 0.0 | 0.00 | 0.03 | 0.00 | 88 | 1016.2 |
| 20260506043604 | -1 | 0 | 0.0 | 0.0 | 0.00 | 0.03 | 0.00 | 88 | 1016.2 |
| 20260506043403 | -1 | 0 | 0.0 | 0.0 | 0.00 | 0.03 | 0.00 | 88 | 1016.3 |
| 20260506043204 | -1 | 0 | 0.0 | 0.0 | 0.00 | 0.03 | 0.00 | 88 | 1016.4 |
| 20260506043003 | -1 | 0 | 0.0 | 0.0 | 0.00 | 0.03 | 0.00 | 88 | 1016.2 |
| 20260506042803 | -1 | 0 | 0.0 | 0.0 | 0.00 | 0.03 | 0.00 | 88 | 1016.2 |
| 20260506042604 | -1 | 0 | 0.0 | 0.0 | 0.00 | 0.03 | 0.00 | 87 | 1016.2 |
| 20260506042403 | -1 | 0 | 0.0 | 0.0 | 0.00 | 0.03 | 0.00 | 87 | 1016.2 |
| 20260506042203 | -1 | 0 | 0.0 | 0.0 | 0.00 | 0.03 | 0.00 | 87 | 1016.3 |
| 20260506042004 | -1 | 0 | 0.0 | 0.0 | 0.00 | 0.03 | 0.00 | 87 | 1016.3 |
| 20260506041803 | -1 | 0 | 0.0 | 0.0 | 0.00 | 0.03 | 0.00 | 87 | 1016.3 |
| 20260506041603 | -1 | 0 | 0.0 | 0.0 | 0.00 | 0.03 | 0.00 | 88 | 1016.3 |
| 20260506041404 | -1 | 0 | 0.0 | 0.0 | 0.00 | 0.03 | 0.00 | 88 | 1016.3 |
| 20260506041203 | -1 | 0 | 0.0 | 0.0 | 0.00 | 0.03 | 0.00 | 88 | 1016.3 |
| 20260506041004 | -1 | 0 | 0.0 | 0.0 | 0.00 | 0.03 | 0.00 | 87 | 1016.3 |
| 20260506040803 | -1 | 0 | 0.0 | 0.0 | 0.00 | 0.03 | 0.00 | 87 | 1016.2 |
| 20260506040603 | -1 | 0 | 0.0 | 0.0 | 0.00 | 0.03 | 0.00 | 87 | 1016.2 |
| 20260506040404 | -1 | 0 | 0.0 | 0.0 | 0.00 | 0.03 | 0.00 | 88 | 1016.2 |
| 20260506040203 | -1 | 0 | 0.0 | 0.0 | 0.00 | 0.03 | 0.00 | 88 | 1016.3 |
| 20260506040003 | -1 | 0 | 0.0 | 0.0 | 0.00 | 0.03 | 0.00 | 87 | 1016.3 |
| 20260506035804 | -1 | 0 | 0.0 | 0.0 | 0.00 | 0.03 | 0.00 | 87 | 1016.2 |
| 20260506035603 | -1 | 0 | 0.0 | 0.0 | 0.00 | 0.03 | 0.00 | 87 | 1016.2 |
| 20260506035404 | -1 | 0 | 0.0 | 0.0 | 0.00 | 0.03 | 0.00 | 87 | 1016.3 |
| 20260506035203 | -1 | 0 | 0.0 | 0.0 | 0.00 | 0.03 | 0.00 | 87 | 1016.3 |
| 20260506035003 | -1 | 0 | 0.0 | 0.0 | 0.00 | 0.03 | 0.00 | 87 | 1016.2 |
| 20260506034803 | -1 | 0 | 0.0 | 0.0 | 0.00 | 0.03 | 0.00 | 87 | 1016.3 |
| 20260506034604 | -1 | 0 | 0.0 | 0.0 | 0.00 | 0.03 | 0.00 | 87 | 1016.2 |
| 20260506034403 | -1 | 0 | 0.0 | 0.0 | 0.00 | 0.03 | 0.00 | 87 | 1016.3 |
| 20260506034204 | -1 | 0 | 0.0 | 0.0 | 0.00 | 0.03 | 0.00 | 87 | 1016.3 |
| 20260506034004 | -1 | 0 | 0.0 | 0.0 | 0.00 | 0.03 | 0.00 | 87 | 1016.2 |
| 20260506033803 | -1 | 0 | 0.0 | 0.0 | 0.00 | 0.03 | 0.00 | 87 | 1016.3 |
| 20260506033604 | 0 | 0 | 0.0 | 0.0 | 0.00 | 0.03 | 0.00 | 87 | 1016.4 |
| 20260506033403 | 0 | 0 | 0.0 | 0.0 | 0.00 | 0.03 | 0.00 | 87 | 1016.3 |
| 20260506033204 | 0 | 0 | 0.0 | 0.0 | 0.00 | 0.03 | 0.00 | 87 | 1016.3 |
| 20260506033005 | 0 | 0 | 0.0 | 0.0 | 0.00 | 0.03 | 0.00 | 87 | 1016.2 |
| 20260506032803 | 0 | 0 | 0.0 | 0.0 | 0.00 | 0.03 | 0.00 | 87 | 1016.4 |
| 20260506032603 | 0 | 0 | 0.0 | 0.0 | 0.00 | 0.03 | 0.00 | 87 | 1016.4 |
| 20260506032403 | 0 | 0 | 0.0 | 0.0 | 0.00 | 0.03 | 0.00 | 87 | 1016.3 |
| 20260506032203 | 0 | 0 | 0.0 | 0.0 | 0.00 | 0.03 | 0.00 | 87 | 1016.4 |
| 20260506032004 | 0 | 0 | 0.0 | 0.0 | 0.00 | 0.03 | 0.00 | 87 | 1016.4 |
| 20260506031804 | 0 | 0 | 0.0 | 0.0 | 0.00 | 0.03 | 0.00 | 87 | 1016.4 |
| 20260506031603 | 0 | 0 | 0.0 | 0.0 | 0.00 | 0.03 | 0.00 | 87 | 1016.4 |
| 20260506031403 | 0 | 0 | 0.0 | 0.0 | 0.00 | 0.03 | 0.00 | 87 | 1016.4 |
| 20260506031204 | 0 | 0 | 0.0 | 0.0 | 0.00 | 0.03 | 0.00 | 87 | 1016.5 |
| 20260506031006 | 0 | 0 | 0.0 | 0.0 | 0.00 | 0.03 | 0.00 | 87 | 1016.4 |
| 20260506030803 | 0 | 0 | 0.0 | 0.0 | 0.00 | 0.03 | 0.00 | 87 | 1016.5 |
| 20260506030604 | 0 | 0 | 0.0 | 0.0 | 0.00 | 0.03 | 0.00 | 87 | 1016.5 |
| 20260506030403 | 0 | 0 | 0.0 | 0.0 | 0.00 | 0.03 | 0.00 | 86 | 1016.5 |
| 20260506030004 | 0 | 0 | 0.0 | 0.0 | 0.00 | 0.03 | 0.00 | 86 | 1016.5 |
| 20260506025803 | 0 | 0 | 0.0 | 0.0 | 0.00 | 0.03 | 0.00 | 86 | 1016.5 |
| 20260506025604 | 0 | 0 | 0.0 | 0.0 | 0.00 | 0.03 | 0.00 | 86 | 1016.5 |
| 20260506025405 | 0 | 0 | 0.0 | 0.0 | 0.00 | 0.03 | 0.00 | 86 | 1016.4 |
| 20260506025203 | 0 | 0 | 0.0 | 0.0 | 0.00 | 0.03 | 0.00 | 86 | 1016.4 |
| 20260506025004 | 0 | 0 | 0.0 | 0.0 | 0.00 | 0.03 | 0.00 | 86 | 1016.3 |
| 20260506024804 | 0 | 0 | 0.0 | 0.0 | 0.00 | 0.03 | 0.00 | 86 | 1016.4 |
| 20260506024603 | 0 | 0 | 0.0 | 0.0 | 0.00 | 0.03 | 0.00 | 86 | 1016.3 |
| 20260506024403 | 0 | 0 | 0.0 | 0.0 | 0.00 | 0.03 | 0.00 | 86 | 1016.4 |
| 20260506024203 | 0 | 325 | 0.0 | 3.2 | 0.00 | 0.03 | 0.00 | 86 | 1016.4 |
| 20260506024004 | 0 | 325 | 0.0 | 3.2 | 0.00 | 0.03 | 0.00 | 86 | 1016.4 |
| 20260506023805 | 0 | 325 | 0.0 | 3.2 | 0.00 | 0.03 | 0.00 | 86 | 1016.5 |
| 20260506023604 | 0 | 325 | 0.0 | 3.2 | 0.00 | 0.03 | 0.00 | 86 | 1016.4 |
| 20260506023403 | 0 | 325 | 0.0 | 3.2 | 0.00 | 0.03 | 0.00 | 86 | 1016.4 |
| 20260506023203 | 0 | 325 | 0.0 | 1.6 | 0.00 | 0.03 | 0.00 | 86 | 1016.4 |
| 20260506023003 | 0 | 0 | 0.0 | 0.0 | 0.00 | 0.03 | 0.00 | 86 | 1016.4 |
| 20260506022805 | 0 | 0 | 0.0 | 0.0 | 0.00 | 0.03 | 0.00 | 86 | 1016.3 |
| 20260506022604 | 0 | 0 | 0.0 | 0.0 | 0.00 | 0.03 | 0.00 | 86 | 1016.3 |
| 20260506022403 | 0 | 0 | 0.0 | 0.0 | 0.00 | 0.03 | 0.00 | 85 | 1016.4 |
| 20260506022203 | 0 | 0 | 0.0 | 0.0 | 0.00 | 0.03 | 0.00 | 85 | 1016.4 |
| 20260506022003 | 0 | 0 | 0.0 | 0.0 | 0.00 | 0.03 | 0.00 | 85 | 1016.5 |
| 20260506021804 | 0 | 0 | 0.0 | 0.0 | 0.00 | 0.03 | 0.00 | 85 | 1016.4 |
| 20260506021603 | 0 | 325 | 0.0 | 1.6 | 0.00 | 0.03 | 0.00 | 86 | 1016.4 |
| 20260506021403 | 0 | 325 | 0.0 | 1.6 | 0.00 | 0.03 | 0.00 | 86 | 1016.4 |
| 20260506021203 | 0 | 325 | 0.0 | 1.6 | 0.00 | 0.03 | 0.00 | 86 | 1016.4 |
| 20260506021003 | 0 | 325 | 0.0 | 1.6 | 0.00 | 0.03 | 0.00 | 86 | 1016.4 |
| 20260506020803 | 0 | 325 | 0.0 | 1.6 | 0.00 | 0.03 | 0.00 | 86 | 1016.4 |
| 20260506020604 | 0 | 325 | 0.0 | 1.6 | 0.00 | 0.03 | 0.00 | 85 | 1016.4 |
| 20260506020404 | 0 | 0 | 0.0 | 0.0 | 0.00 | 0.03 | 0.00 | 85 | 1016.4 |
| 20260506020203 | 0 | 0 | 0.0 | 0.0 | 0.00 | 0.03 | 0.00 | 85 | 1016.4 |
| 20260506020003 | 0 | 0 | 0.0 | 0.0 | 0.00 | 0.03 | 0.00 | 86 | 1016.4 |
| 20260506015803 | 0 | 0 | 0.0 | 0.0 | 0.00 | 0.03 | 0.00 | 86 | 1016.4 |
| 20260506015603 | 1 | 0 | 0.0 | 0.0 | 0.00 | 0.03 | 0.00 | 86 | 1016.4 |
| 20260506015403 | 1 | 0 | 0.0 | 0.0 | 0.00 | 0.03 | 0.00 | 86 | 1016.4 |
| 20260506015203 | 1 | 325 | 0.0 | 1.6 | 0.00 | 0.03 | 0.00 | 86 | 1016.5 |
| 20260506015004 | 1 | 325 | 0.0 | 3.2 | 0.00 | 0.03 | 0.00 | 86 | 1016.6 |
| 20260506014803 | 1 | 325 | 1.6 | 3.2 | 0.00 | 0.03 | 0.00 | 86 | 1016.6 |
| 20260506014604 | 1 | 326 | 1.6 | 6.4 | 0.00 | 0.03 | 0.00 | 86 | 1016.6 |
| 20260506014403 | 1 | 326 | 1.6 | 6.4 | 0.00 | 0.03 | 0.00 | 86 | 1016.6 |
| 20260506014204 | 1 | 326 | 1.6 | 6.4 | 0.00 | 0.03 | 0.00 | 86 | 1016.6 |
| 20260506014003 | 1 | 326 | 1.6 | 6.4 | 0.00 | 0.03 | 0.00 | 86 | 1016.6 |
| 20260506013804 | 1 | 327 | 1.6 | 6.4 | 0.00 | 0.03 | 0.00 | 86 | 1016.6 |
| 20260506013604 | 1 | 327 | 1.6 | 3.2 | 0.00 | 0.03 | 0.00 | 86 | 1016.6 |
| 20260506013404 | 1 | 327 | 1.6 | 3.2 | 0.00 | 0.03 | 0.00 | 86 | 1016.6 |
| 20260506013204 | 1 | 327 | 1.6 | 3.2 | 0.00 | 0.03 | 0.00 | 86 | 1016.7 |
| 20260506013003 | 1 | 327 | 0.0 | 6.4 | 0.00 | 0.03 | 0.00 | 86 | 1016.6 |
| 20260506012803 | 1 | 327 | 0.0 | 6.4 | 0.00 | 0.03 | 0.00 | 86 | 1016.7 |
| 20260506012604 | 1 | 327 | 0.0 | 6.4 | 0.00 | 0.03 | 0.00 | 86 | 1016.7 |
| 20260506012405 | 1 | 327 | 0.0 | 6.4 | 0.00 | 0.03 | 0.00 | 86 | 1016.7 |
| 20260506012204 | 1 | 327 | 0.0 | 6.4 | 0.00 | 0.03 | 0.00 | 86 | 1016.7 |
| 20260506012003 | 1 | 327 | 0.0 | 1.6 | 0.00 | 0.03 | 0.00 | 86 | 1016.7 |
| 20260506011803 | 0 | 327 | 0.0 | 1.6 | 0.00 | 0.03 | 0.00 | 86 | 1016.7 |
| 20260506011604 | 0 | 0 | 0.0 | 0.0 | 0.00 | 0.03 | 0.00 | 86 | 1016.7 |
| 20260506011403 | 0 | 327 | 0.0 | 3.2 | 0.00 | 0.03 | 0.00 | 85 | 1016.7 |
| 20260506011203 | 0 | 327 | 0.0 | 3.2 | 0.00 | 0.03 | 0.00 | 85 | 1016.7 |
| 20260506011004 | 0 | 327 | 1.6 | 6.4 | 0.00 | 0.03 | 0.00 | 85 | 1016.7 |
| 20260506010804 | 0 | 327 | 1.6 | 6.4 | 0.00 | 0.03 | 0.00 | 85 | 1016.7 |
| 20260506010604 | 0 | 327 | 1.6 | 6.4 | 0.00 | 0.03 | 0.00 | 85 | 1016.7 |
| 20260506010404 | 0 | 327 | 1.6 | 6.4 | 0.00 | 0.03 | 0.00 | 85 | 1016.7 |
| 20260506010204 | 0 | 327 | 1.6 | 6.4 | 0.00 | 0.03 | 0.00 | 84 | 1016.7 |
| 20260506010003 | 0 | 327 | 3.2 | 6.4 | 0.00 | 0.03 | 0.00 | 84 | 1016.7 |
| 20260506005803 | 1 | 328 | 3.2 | 6.4 | 0.00 | 0.03 | 0.00 | 84 | 1016.7 |
| 20260506005603 | 1 | 328 | 3.2 | 6.4 | 0.00 | 0.03 | 0.00 | 84 | 1016.7 |
| 20260506005403 | 1 | 328 | 4.8 | 9.7 | 0.00 | 0.03 | 0.00 | 84 | 1016.9 |
| 20260506005203 | 1 | 328 | 3.2 | 9.7 | 0.00 | 0.03 | 0.00 | 84 | 1016.9 |
| 20260506005003 | 1 | 327 | 3.2 | 9.7 | 0.00 | 0.03 | 0.00 | 84 | 1016.8 |
| 20260506004803 | 1 | 327 | 1.6 | 9.7 | 0.00 | 0.03 | 0.00 | 84 | 1016.7 |
| 20260506004604 | 1 | 327 | 1.6 | 9.7 | 0.00 | 0.03 | 0.00 | 84 | 1016.8 |
| 20260506004404 | 1 | 325 | 0.0 | 3.2 | 0.00 | 0.03 | 0.00 | 84 | 1016.7 |
| 20260506004204 | 1 | 0 | 0.0 | 0.0 | 0.00 | 0.03 | 0.00 | 84 | 1016.7 |
| 20260506004003 | 1 | 0 | 0.0 | 0.0 | 0.00 | 0.03 | 0.00 | 84 | 1016.7 |
| 20260506003804 | 1 | 0 | 0.0 | 0.0 | 0.00 | 0.03 | 0.00 | 83 | 1016.7 |
| 20260506003603 | 1 | 325 | 0.0 | 1.6 | 0.00 | 0.03 | 0.00 | 83 | 1016.8 |
| 20260506003403 | 1 | 325 | 0.0 | 3.2 | 0.00 | 0.03 | 0.00 | 83 | 1016.7 |
| 20260506003204 | 1 | 325 | 0.0 | 3.2 | 0.00 | 0.03 | 0.00 | 83 | 1016.8 |
| 20260506003003 | 1 | 325 | 1.6 | 3.2 | 0.00 | 0.03 | 0.00 | 83 | 1016.8 |
| 20260506002803 | 1 | 325 | 1.6 | 6.4 | 0.00 | 0.03 | 0.00 | 83 | 1016.8 |
| 20260506002603 | 1 | 325 | 1.6 | 6.4 | 0.00 | 0.03 | 0.00 | 83 | 1016.7 |
| 20260506002404 | 1 | 326 | 3.2 | 8.0 | 0.00 | 0.03 | 0.00 | 83 | 1016.7 |
| 20260506002204 | 1 | 327 | 3.2 | 8.0 | 0.00 | 0.03 | 0.00 | 83 | 1016.7 |
| 20260506002003 | 1 | 328 | 3.2 | 8.0 | 0.00 | 0.03 | 0.00 | 83 | 1016.7 |
| 20260506001803 | 1 | 329 | 3.2 | 8.0 | 0.00 | 0.03 | 0.00 | 83 | 1016.7 |
| 20260506001604 | 1 | 330 | 3.2 | 8.0 | 0.00 | 0.03 | 0.00 | 82 | 1016.7 |
| 20260506001403 | 1 | 331 | 1.6 | 6.4 | 0.00 | 0.03 | 0.00 | 82 | 1016.7 |
| 20260506001204 | 1 | 330 | 1.6 | 6.4 | 0.00 | 0.03 | 0.00 | 82 | 1016.7 |
| 20260506001003 | 1 | 330 | 1.6 | 6.4 | 0.00 | 0.03 | 0.00 | 82 | 1016.7 |
| 20260506000803 | 1 | 330 | 0.0 | 3.2 | 0.00 | 0.03 | 0.00 | 82 | 1016.6 |
| 20260506000604 | 1 | 330 | 0.0 | 3.2 | 0.00 | 0.03 | 0.00 | 82 | 1016.6 |
| 20260506000403 | 1 | 0 | 0.0 | 0.0 | 0.00 | 0.03 | 0.00 | 82 | 1016.7 |
| 20260506000204 | 2 | 0 | 0.0 | 0.0 | 0.00 | 0.03 | 0.00 | 82 | 1016.7 |
| 20260506000003 | 2 | 0 | 0.0 | 0.0 | 0.00 | 0.03 | 0.00 | 81 | 1016.6 |
| 20260505235804 | 2 | 0 | 0.0 | 0.0 | 0.00 | 0.03 | 0.00 | 81 | 1016.6 |
| 20260505235603 | 2 | 330 | 0.0 | 1.6 | 0.00 | 0.03 | 0.00 | 81 | 1016.7 |
| 20260505235403 | 2 | 330 | 0.0 | 1.6 | 0.00 | 0.03 | 0.00 | 81 | 1016.7 |
| 20260505235204 | 2 | 330 | 0.0 | 1.6 | 0.00 | 0.03 | 0.00 | 82 | 1016.6 |
| 20260505235004 | 2 | 330 | 0.0 | 1.6 | 0.00 | 0.03 | 0.00 | 82 | 1016.7 |
| 20260505234803 | 2 | 330 | 0.0 | 1.6 | 0.00 | 0.03 | 0.00 | 82 | 1016.6 |
| 20260505234604 | 2 | 330 | 0.0 | 3.2 | 0.00 | 0.03 | 0.00 | 82 | 1016.7 |
| 20260505234404 | 2 | 330 | 0.0 | 3.2 | 0.00 | 0.03 | 0.00 | 82 | 1016.6 |
| 20260505234204 | 2 | 330 | 1.6 | 3.2 | 0.00 | 0.03 | 0.00 | 82 | 1016.6 |
| 20260505234004 | 2 | 330 | 1.6 | 3.2 | 0.00 | 0.03 | 0.00 | 82 | 1016.7 |
| 20260505233804 | 2 | 330 | 1.6 | 3.2 | 0.00 | 0.03 | 0.00 | 82 | 1016.6 |
| 20260505233603 | 2 | 330 | 1.6 | 6.4 | 0.00 | 0.03 | 0.00 | 82 | 1016.6 |
| 20260505233404 | 2 | 332 | 3.2 | 6.4 | 0.00 | 0.03 | 0.00 | 82 | 1016.7 |
| 20260505233203 | 2 | 333 | 3.2 | 6.4 | 0.00 | 0.03 | 0.00 | 82 | 1016.7 |
| 20260505233003 | 2 | 334 | 3.2 | 6.4 | 0.00 | 0.03 | 0.00 | 82 | 1016.7 |
| 20260505232804 | 2 | 336 | 3.2 | 6.4 | 0.00 | 0.03 | 0.00 | 82 | 1016.7 |
| 20260505232603 | 2 | 338 | 3.2 | 6.4 | 0.00 | 0.03 | 0.00 | 82 | 1016.7 |
| 20260505232404 | 2 | 339 | 3.2 | 6.4 | 0.00 | 0.03 | 0.00 | 82 | 1016.7 |
| 20260505232203 | 2 | 340 | 3.2 | 6.4 | 0.00 | 0.03 | 0.00 | 82 | 1016.7 |
| 20260505232003 | 2 | 341 | 1.6 | 6.4 | 0.00 | 0.03 | 0.00 | 82 | 1016.9 |
| 20260505231804 | 2 | 341 | 1.6 | 6.4 | 0.00 | 0.03 | 0.00 | 82 | 1016.8 |
| 20260505231604 | 2 | 341 | 1.6 | 6.4 | 0.00 | 0.03 | 0.00 | 82 | 1016.8 |
| 20260505231404 | 2 | 341 | 1.6 | 6.4 | 0.00 | 0.03 | 0.00 | 82 | 1016.7 |
| 20260505231204 | 2 | 341 | 1.6 | 3.2 | 0.00 | 0.03 | 0.00 | 82 | 1016.8 |
| 20260505231003 | 2 | 341 | 1.6 | 3.2 | 0.00 | 0.03 | 0.00 | 82 | 1016.7 |
| 20260505230804 | 2 | 341 | 1.6 | 3.2 | 0.00 | 0.03 | 0.00 | 82 | 1016.8 |
| 20260505230603 | 2 | 341 | 1.6 | 3.2 | 0.00 | 0.03 | 0.00 | 82 | 1016.7 |
| 20260505230403 | 2 | 341 | 1.6 | 3.2 | 0.00 | 0.03 | 0.00 | 82 | 1016.8 |
| 20260505230204 | 2 | 341 | 1.6 | 3.2 | 0.00 | 0.03 | 0.00 | 82 | 1016.8 |
| 20260505230004 | 2 | 341 | 1.6 | 3.2 | 0.00 | 0.03 | 0.00 | 82 | 1016.8 |
| 20260505225804 | 2 | 341 | 1.6 | 3.2 | 0.00 | 0.03 | 0.03 | 82 | 1016.8 |
| 20260505225603 | 2 | 341 | 1.6 | 3.2 | 0.00 | 0.03 | 0.03 | 82 | 1016.7 |
| 20260505225403 | 2 | 341 | 1.6 | 3.2 | 0.00 | 0.03 | 0.03 | 82 | 1016.7 |
| 20260505225203 | 2 | 341 | 1.6 | 3.2 | 0.00 | 0.03 | 0.03 | 81 | 1016.7 |
| 20260505225004 | 2 | 341 | 0.0 | 3.2 | 0.00 | 0.03 | 0.03 | 81 | 1016.8 |
| 20260505224803 | 2 | 341 | 0.0 | 1.6 | 0.00 | 0.03 | 0.03 | 81 | 1016.8 |
| 20260505224604 | 2 | 341 | 0.0 | 1.6 | 0.00 | 0.03 | 0.03 | 81 | 1016.8 |
| 20260505224403 | 2 | 341 | 0.0 | 3.2 | 0.00 | 0.03 | 0.03 | 81 | 1016.8 |
| 20260505224203 | 2 | 341 | 0.0 | 3.2 | 0.00 | 0.03 | 0.03 | 81 | 1016.9 |
| 20260505224003 | 2 | 341 | 1.6 | 3.2 | 0.00 | 0.03 | 0.03 | 81 | 1016.8 |
| 20260505223804 | 2 | 341 | 1.6 | 3.2 | 0.00 | 0.03 | 0.03 | 81 | 1016.9 |
| 20260505223604 | 2 | 341 | 1.6 | 3.2 | 0.00 | 0.03 | 0.03 | 81 | 1016.9 |
| 20260505223404 | 2 | 341 | 3.2 | 3.2 | 0.00 | 0.03 | 0.03 | 81 | 1016.9 |
| 20260505223203 | 2 | 341 | 1.6 | 3.2 | 0.00 | 0.03 | 0.03 | 81 | 1016.9 |
| 20260505223003 | 2 | 341 | 1.6 | 3.2 | 0.00 | 0.03 | 0.03 | 81 | 1017.0 |
| 20260505222803 | 2 | 341 | 1.6 | 3.2 | 0.00 | 0.03 | 0.03 | 81 | 1016.9 |
| 20260505222605 | 2 | 341 | 1.6 | 3.2 | 0.00 | 0.03 | 0.03 | 81 | 1017.0 |
| 20260505222405 | 2 | 341 | 0.0 | 3.2 | 0.00 | 0.03 | 0.03 | 81 | 1017.0 |
| 20260505222203 | 2 | 341 | 0.0 | 1.6 | 0.00 | 0.03 | 0.03 | 81 | 1017.0 |
| 20260505222004 | 2 | 341 | 0.0 | 1.6 | 0.00 | 0.03 | 0.03 | 81 | 1017.0 |
| 20260505221803 | 2 | 341 | 0.0 | 3.2 | 0.00 | 0.03 | 0.03 | 81 | 1017.0 |
| 20260505221604 | 3 | 341 | 0.0 | 3.2 | 0.00 | 0.03 | 0.03 | 81 | 1017.0 |
| 20260505221404 | 3 | 341 | 0.0 | 3.2 | 0.00 | 0.03 | 0.03 | 81 | 1017.1 |
| 20260505221203 | 3 | 341 | 0.0 | 3.2 | 0.00 | 0.03 | 0.03 | 80 | 1017.1 |
| 20260505221004 | 3 | 341 | 0.0 | 3.2 | 0.00 | 0.03 | 0.03 | 80 | 1017.1 |
| 20260505220803 | 3 | 341 | 0.0 | 3.2 | 0.00 | 0.03 | 0.03 | 81 | 1017.1 |
| 20260505220604 | 3 | 341 | 1.6 | 3.2 | 0.00 | 0.03 | 0.03 | 81 | 1017.1 |
| 20260505220403 | 3 | 341 | 1.6 | 3.2 | 0.00 | 0.03 | 0.03 | 80 | 1017.1 |
| 20260505220203 | 3 | 341 | 1.6 | 3.2 | 0.00 | 0.03 | 0.03 | 80 | 1017.2 |
| 20260505220003 | 3 | 341 | 1.6 | 3.2 | 0.00 | 0.03 | 0.03 | 80 | 1017.1 |
| 20260505215804 | 3 | 341 | 1.6 | 3.2 | 0.00 | 0.03 | 0.03 | 80 | 1017.1 |
| 20260505215603 | 3 | 341 | 1.6 | 3.2 | 0.00 | 0.03 | 0.03 | 80 | 1017.2 |
| 20260505215404 | 3 | 341 | 1.6 | 3.2 | 0.00 | 0.03 | 0.03 | 80 | 1017.1 |
| 20260505215205 | 3 | 341 | 1.6 | 3.2 | 0.00 | 0.03 | 0.03 | 80 | 1017.1 |
| 20260505215003 | 3 | 341 | 0.0 | 3.2 | 0.00 | 0.03 | 0.03 | 80 | 1017.2 |
| 20260505214803 | 3 | 341 | 0.0 | 3.2 | 0.00 | 0.03 | 0.03 | 80 | 1017.2 |
| 20260505214604 | 3 | 341 | 0.0 | 3.2 | 0.00 | 0.03 | 0.03 | 80 | 1017.2 |
| 20260505214403 | 3 | 341 | 1.6 | 3.2 | 0.00 | 0.03 | 0.03 | 79 | 1017.2 |
| 20260505214204 | 3 | 341 | 1.6 | 3.2 | 0.00 | 0.03 | 0.03 | 79 | 1017.2 |
| 20260505214004 | 3 | 341 | 1.6 | 3.2 | 0.00 | 0.03 | 0.03 | 79 | 1017.1 |
| 20260505213803 | 3 | 341 | 1.6 | 3.2 | 0.00 | 0.03 | 0.03 | 79 | 1017.2 |
| 20260505213604 | 3 | 341 | 1.6 | 3.2 | 0.00 | 0.03 | 0.03 | 79 | 1017.2 |
| 20260505213403 | 3 | 341 | 1.6 | 3.2 | 0.00 | 0.03 | 0.03 | 79 | 1017.2 |
| 20260505213203 | 3 | 341 | 0.0 | 3.2 | 0.00 | 0.03 | 0.03 | 79 | 1017.2 |
| 20260505213004 | 3 | 341 | 0.0 | 3.2 | 0.00 | 0.03 | 0.03 | 79 | 1017.2 |
| 20260505212804 | 3 | 341 | 1.6 | 3.2 | 0.00 | 0.03 | 0.03 | 79 | 1017.2 |
| 20260505212604 | 3 | 341 | 1.6 | 3.2 | 0.00 | 0.03 | 0.03 | 79 | 1017.2 |
| 20260505212403 | 3 | 341 | 1.6 | 3.2 | 0.00 | 0.03 | 0.03 | 78 | 1017.1 |
| 20260505212203 | 3 | 341 | 1.6 | 3.2 | 0.00 | 0.03 | 0.03 | 78 | 1017.1 |
| 20260505212004 | 3 | 341 | 1.6 | 3.2 | 0.00 | 0.03 | 0.03 | 78 | 1017.1 |
| 20260505211803 | 3 | 341 | 1.6 | 6.4 | 0.00 | 0.03 | 0.03 | 78 | 1017.0 |
| 20260505211603 | 3 | 341 | 1.6 | 6.4 | 0.00 | 0.03 | 0.03 | 78 | 1017.1 |
| 20260505211404 | 3 | 341 | 1.6 | 6.4 | 0.00 | 0.03 | 0.03 | 78 | 1017.0 |
| 20260505211205 | 3 | 341 | 1.6 | 6.4 | 0.00 | 0.03 | 0.03 | 78 | 1017.0 |
| 20260505211003 | 3 | 341 | 1.6 | 6.4 | 0.00 | 0.03 | 0.03 | 78 | 1017.0 |
| 20260505210805 | 3 | 341 | 1.6 | 3.2 | 0.00 | 0.03 | 0.03 | 78 | 1017.1 |
| 20260505210603 | 4 | 341 | 0.0 | 3.2 | 0.00 | 0.03 | 0.03 | 78 | 1017.0 |
| 20260505210403 | 4 | 341 | 0.0 | 3.2 | 0.00 | 0.03 | 0.03 | 78 | 1017.1 |
| 20260505210204 | 4 | 341 | 1.6 | 3.2 | 0.00 | 0.03 | 0.03 | 78 | 1017.1 |
| 20260505210003 | 4 | 341 | 1.6 | 3.2 | 0.00 | 0.03 | 0.03 | 78 | 1017.1 |
| 20260505205803 | 4 | 341 | 1.6 | 3.2 | 0.00 | 0.03 | 0.03 | 78 | 1017.2 |
| 20260505205603 | 4 | 341 | 1.6 | 3.2 | 0.00 | 0.03 | 0.03 | 78 | 1017.1 |
| 20260505205404 | 4 | 341 | 1.6 | 6.4 | 0.00 | 0.03 | 0.03 | 78 | 1017.1 |
| 20260505205203 | 4 | 341 | 1.6 | 6.4 | 0.00 | 0.03 | 0.03 | 78 | 1017.1 |
| 20260505205003 | 4 | 341 | 1.6 | 6.4 | 0.00 | 0.03 | 0.03 | 78 | 1017.1 |
| 20260505204803 | 4 | 341 | 1.6 | 6.4 | 0.00 | 0.03 | 0.03 | 78 | 1017.1 |
| 20260505204603 | 4 | 341 | 1.6 | 6.4 | 0.00 | 0.03 | 0.03 | 77 | 1017.1 |
| 20260505204403 | 4 | 341 | 0.0 | 3.2 | 0.00 | 0.03 | 0.03 | 77 | 1017.1 |
| 20260505204203 | 4 | 341 | 0.0 | 3.2 | 0.00 | 0.03 | 0.03 | 77 | 1017.1 |
| 20260505204004 | 4 | 341 | 0.0 | 3.2 | 0.00 | 0.03 | 0.03 | 76 | 1017.1 |
| 20260505203804 | 4 | 341 | 0.0 | 3.2 | 0.00 | 0.03 | 0.03 | 76 | 1017.2 |
| 20260505203603 | 4 | 341 | 0.0 | 3.2 | 0.00 | 0.03 | 0.03 | 76 | 1017.1 |
| 20260505203404 | 4 | 341 | 0.0 | 3.2 | 0.00 | 0.03 | 0.03 | 76 | 1017.1 |
| 20260505203204 | 4 | 341 | 0.0 | 3.2 | 0.00 | 0.03 | 0.03 | 76 | 1017.1 |
| 20260505203003 | 4 | 341 | 0.0 | 3.2 | 0.00 | 0.03 | 0.03 | 76 | 1017.2 |
| 20260505202804 | 4 | 341 | 0.0 | 3.2 | 0.00 | 0.03 | 0.03 | 76 | 1017.1 |
| 20260505202605 | 4 | 341 | 0.0 | 3.2 | 0.00 | 0.03 | 0.03 | 76 | 1017.2 |
| 20260505202403 | 4 | 341 | 0.0 | 3.2 | 0.00 | 0.03 | 0.03 | 76 | 1017.1 |
| 20260505202204 | 5 | 341 | 0.0 | 1.6 | 0.00 | 0.03 | 0.03 | 76 | 1017.1 |
| 20260505202004 | 5 | 341 | 0.0 | 1.6 | 0.00 | 0.03 | 0.03 | 75 | 1017.1 |
| 20260505201804 | 5 | 341 | 0.0 | 1.6 | 0.00 | 0.03 | 0.03 | 75 | 1017.1 |
| 20260505201604 | 5 | 341 | 0.0 | 3.2 | 0.00 | 0.03 | 0.03 | 75 | 1017.1 |
| 20260505201404 | 5 | 340 | 0.0 | 3.2 | 0.00 | 0.03 | 0.03 | 75 | 1017.1 |
| 20260505201203 | 5 | 340 | 1.6 | 3.2 | 0.00 | 0.03 | 0.03 | 75 | 1017.2 |
| 20260505201003 | 5 | 340 | 1.6 | 6.4 | 0.00 | 0.03 | 0.03 | 75 | 1017.2 |
| 20260505200803 | 5 | 340 | 1.6 | 6.4 | 0.00 | 0.03 | 0.03 | 75 | 1017.1 |
| 20260505200603 | 5 | 340 | 1.6 | 6.4 | 0.00 | 0.03 | 0.03 | 75 | 1017.1 |
| 20260505200403 | 5 | 340 | 1.6 | 6.4 | 0.00 | 0.03 | 0.03 | 75 | 1017.1 |
| 20260505200203 | 5 | 340 | 1.6 | 6.4 | 0.00 | 0.03 | 0.03 | 74 | 1017.1 |
| 20260505200003 | 5 | 340 | 1.6 | 6.4 | 0.00 | 0.03 | 0.03 | 74 | 1017.1 |
| 20260505195803 | 5 | 340 | 1.6 | 3.2 | 0.00 | 0.03 | 0.03 | 74 | 1017.1 |
| 20260505195604 | 5 | 340 | 1.6 | 3.2 | 0.00 | 0.03 | 0.03 | 74 | 1017.0 |
| 20260505195404 | 5 | 340 | 1.6 | 6.4 | 0.00 | 0.03 | 0.03 | 74 | 1017.1 |
| 20260505195203 | 5 | 340 | 3.2 | 6.4 | 0.00 | 0.03 | 0.03 | 74 | 1017.0 |
| 20260505195003 | 5 | 340 | 3.2 | 6.4 | 0.00 | 0.03 | 0.03 | 74 | 1017.1 |
| 20260505194804 | 5 | 340 | 3.2 | 8.0 | 0.00 | 0.03 | 0.03 | 73 | 1017.0 |
| 20260505194604 | 5 | 340 | 3.2 | 8.0 | 0.00 | 0.03 | 0.03 | 73 | 1017.0 |
| 20260505194404 | 5 | 340 | 3.2 | 8.0 | 0.00 | 0.03 | 0.03 | 73 | 1017.0 |
| 20260505194203 | 5 | 340 | 3.2 | 8.0 | 0.00 | 0.03 | 0.03 | 73 | 1017.0 |
| 20260505194004 | 5 | 340 | 3.2 | 8.0 | 0.00 | 0.03 | 0.03 | 73 | 1017.1 |
| 20260505193805 | 5 | 340 | 3.2 | 8.0 | 0.00 | 0.03 | 0.03 | 72 | 1017.0 |
| 20260505193603 | 5 | 340 | 3.2 | 8.0 | 0.00 | 0.03 | 0.03 | 72 | 1017.1 |
| 20260505193404 | 5 | 340 | 3.2 | 8.0 | 0.00 | 0.03 | 0.03 | 72 | 1017.0 |
| 20260505193204 | 5 | 340 | 4.8 | 8.0 | 0.00 | 0.03 | 0.03 | 71 | 1017.0 |
| 20260505193003 | 5 | 341 | 4.8 | 8.0 | 0.00 | 0.03 | 0.03 | 71 | 1017.0 |
| 20260505192803 | 6 | 340 | 4.8 | 9.7 | 0.00 | 0.03 | 0.03 | 71 | 1016.9 |
| 20260505192604 | 6 | 341 | 6.4 | 9.7 | 0.00 | 0.03 | 0.03 | 70 | 1016.9 |
| 20260505192404 | 6 | 341 | 6.4 | 9.7 | 0.00 | 0.03 | 0.03 | 70 | 1017.0 |
| 20260505192204 | 6 | 340 | 6.4 | 9.7 | 0.00 | 0.03 | 0.03 | 69 | 1017.0 |
| 20260505192003 | 6 | 338 | 6.4 | 11.3 | 0.00 | 0.03 | 0.03 | 69 | 1016.9 |
| 20260505191804 | 6 | 338 | 6.4 | 11.3 | 0.00 | 0.03 | 0.03 | 69 | 1016.9 |
| 20260505191603 | 6 | 337 | 6.4 | 11.3 | 0.00 | 0.03 | 0.03 | 69 | 1016.9 |
| 20260505191404 | 6 | 336 | 6.4 | 11.3 | 0.00 | 0.03 | 0.03 | 68 | 1016.9 |
| 20260505191203 | 6 | 335 | 6.4 | 11.3 | 0.00 | 0.03 | 0.03 | 68 | 1016.8 |
| 20260505191003 | 6 | 337 | 6.4 | 11.3 | 0.00 | 0.03 | 0.03 | 68 | 1016.9 |
| 20260505190804 | 6 | 336 | 6.4 | 11.3 | 0.00 | 0.03 | 0.03 | 67 | 1016.8 |
| 20260505190603 | 6 | 336 | 6.4 | 11.3 | 0.00 | 0.03 | 0.03 | 67 | 1016.8 |
| 20260505190403 | 6 | 337 | 6.4 | 11.3 | 0.00 | 0.03 | 0.03 | 67 | 1016.8 |
| 20260505190203 | 6 | 339 | 6.4 | 11.3 | 0.00 | 0.03 | 0.03 | 67 | 1016.8 |
| 20260505190003 | 6 | 339 | 6.4 | 9.7 | 0.00 | 0.03 | 0.03 | 67 | 1016.8 |
| 20260505185804 | 6 | 340 | 6.4 | 9.7 | 0.00 | 0.03 | 0.03 | 67 | 1016.8 |
| 20260505185604 | 6 | 340 | 6.4 | 11.3 | 0.00 | 0.03 | 0.03 | 67 | 1016.8 |
| 20260505185404 | 6 | 341 | 6.4 | 17.7 | 0.00 | 0.03 | 0.03 | 66 | 1016.8 |
| 20260505185204 | 6 | 339 | 8.0 | 19.3 | 0.00 | 0.03 | 0.03 | 66 | 1016.8 |
| 20260505185003 | 7 | 338 | 8.0 | 19.3 | 0.00 | 0.03 | 0.03 | 66 | 1016.9 |
| 20260505184803 | 7 | 337 | 8.0 | 19.3 | 0.00 | 0.03 | 0.03 | 65 | 1016.8 |
| 20260505184604 | 7 | 336 | 8.0 | 19.3 | 0.00 | 0.03 | 0.03 | 64 | 1016.8 |
| 20260505184403 | 7 | 335 | 9.7 | 19.3 | 0.00 | 0.03 | 0.03 | 64 | 1016.8 |
| 20260505184204 | 7 | 334 | 9.7 | 20.9 | 0.00 | 0.03 | 0.03 | 64 | 1016.9 |
| 20260505184003 | 7 | 334 | 9.7 | 20.9 | 0.00 | 0.03 | 0.03 | 64 | 1016.9 |
| 20260505183803 | 7 | 336 | 9.7 | 20.9 | 0.00 | 0.03 | 0.03 | 64 | 1016.9 |
| 20260505183604 | 7 | 335 | 11.3 | 22.5 | 0.00 | 0.03 | 0.03 | 63 | 1016.8 |
| 20260505183404 | 7 | 334 | 12.9 | 22.5 | 0.00 | 0.03 | 0.03 | 63 | 1016.9 |
| 20260505183203 | 7 | 335 | 12.9 | 22.5 | 0.00 | 0.03 | 0.03 | 62 | 1016.9 |
| 20260505183004 | 7 | 336 | 11.3 | 22.5 | 0.00 | 0.03 | 0.03 | 61 | 1016.9 |
| 20260505182803 | 7 | 336 | 9.7 | 22.5 | 0.00 | 0.03 | 0.03 | 61 | 1016.9 |
| 20260505182603 | 7 | 338 | 9.7 | 22.5 | 0.00 | 0.03 | 0.03 | 60 | 1016.9 |
| 20260505182405 | 7 | 339 | 8.0 | 20.9 | 0.00 | 0.03 | 0.03 | 58 | 1016.9 |
| 20260505182203 | 7 | 339 | 8.0 | 20.9 | 0.00 | 0.03 | 0.03 | 57 | 1016.9 |
| 20260505182003 | 7 | 337 | 9.7 | 20.9 | 0.00 | 0.03 | 0.03 | 57 | 1016.9 |
| 20260505181803 | 7 | 336 | 9.7 | 20.9 | 0.00 | 0.03 | 0.03 | 57 | 1016.9 |
| 20260505181603 | 8 | 334 | 9.7 | 20.9 | 0.00 | 0.03 | 0.03 | 56 | 1016.9 |
| 20260505181403 | 8 | 333 | 8.0 | 17.7 | 0.00 | 0.03 | 0.03 | 56 | 1016.9 |
| 20260505181203 | 8 | 331 | 8.0 | 17.7 | 0.00 | 0.05 | 0.03 | 55 | 1016.9 |
| 20260505181003 | 8 | 332 | 8.0 | 17.7 | 0.00 | 0.05 | 0.03 | 55 | 1016.9 |
| 20260505180803 | 8 | 332 | 8.0 | 17.7 | 0.00 | 0.05 | 0.03 | 56 | 1016.9 |
| 20260505180603 | 8 | 333 | 8.0 | 17.7 | 0.00 | 0.05 | 0.03 | 56 | 1016.9 |
| 20260505180405 | 8 | 335 | 8.0 | 16.1 | 0.00 | 0.05 | 0.03 | 56 | 1016.8 |
| 20260505180205 | 8 | 337 | 8.0 | 16.1 | 0.00 | 0.05 | 0.03 | 56 | 1016.9 |
| 20260505180003 | 8 | 337 | 8.0 | 16.1 | 0.00 | 0.05 | 0.03 | 57 | 1016.9 |
| 20260505175804 | 8 | 339 | 8.0 | 12.9 | 0.00 | 0.05 | 0.03 | 57 | 1016.8 |
| 20260505175603 | 8 | 339 | 8.0 | 12.9 | 0.00 | 0.05 | 0.03 | 56 | 1016.9 |
| 20260505175404 | 8 | 339 | 6.4 | 16.1 | 0.00 | 0.05 | 0.03 | 56 | 1016.9 |
| 20260505175203 | 8 | 340 | 6.4 | 16.1 | 0.00 | 0.05 | 0.03 | 56 | 1016.9 |
| 20260505175004 | 8 | 340 | 6.4 | 16.1 | 0.00 | 0.05 | 0.03 | 56 | 1016.9 |
| 20260505174803 | 8 | 340 | 6.4 | 16.1 | 0.00 | 0.05 | 0.03 | 56 | 1016.8 |
| 20260505174604 | 8 | 341 | 4.8 | 16.1 | 0.00 | 0.05 | 0.03 | 56 | 1016.8 |
| 20260505174403 | 8 | 344 | 6.4 | 16.1 | 0.00 | 0.05 | 0.03 | 56 | 1016.8 |
| 20260505174204 | 8 | 343 | 6.4 | 16.1 | 0.00 | 0.05 | 0.03 | 56 | 1016.9 |
| 20260505174003 | 8 | 343 | 6.4 | 16.1 | 0.00 | 0.05 | 0.03 | 56 | 1016.9 |
| 20260505173804 | 8 | 343 | 6.4 | 16.1 | 0.00 | 0.05 | 0.03 | 56 | 1016.9 |
| 20260505173603 | 8 | 341 | 8.0 | 16.1 | 0.00 | 0.05 | 0.03 | 56 | 1016.9 |
| 20260505173403 | 8 | 339 | 8.0 | 17.7 | 0.00 | 0.05 | 0.03 | 56 | 1016.9 |
| 20260505173205 | 8 | 338 | 8.0 | 22.5 | 0.00 | 0.05 | 0.03 | 56 | 1016.8 |
| 20260505173003 | 8 | 338 | 8.0 | 22.5 | 0.00 | 0.05 | 0.03 | 54 | 1016.9 |
| 20260505172803 | 8 | 338 | 9.7 | 22.5 | 0.00 | 0.05 | 0.03 | 55 | 1017.0 |
| 20260505172603 | 8 | 339 | 9.7 | 22.5 | 0.00 | 0.05 | 0.03 | 55 | 1016.8 |
| 20260505172403 | 8 | 339 | 9.7 | 22.5 | 0.00 | 0.05 | 0.03 | 55 | 1016.9 |
| 20260505172204 | 8 | 338 | 8.0 | 19.3 | 0.00 | 0.05 | 0.03 | 55 | 1016.9 |
| 20260505172003 | 8 | 340 | 9.7 | 19.3 | 0.00 | 0.05 | 0.03 | 56 | 1016.9 |
| 20260505171804 | 8 | 339 | 9.7 | 20.9 | 0.00 | 0.05 | 0.03 | 56 | 1016.9 |
| 20260505171605 | 8 | 340 | 9.7 | 20.9 | 0.00 | 0.05 | 0.03 | 56 | 1016.9 |
| 20260505171403 | 8 | 341 | 11.3 | 20.9 | 0.00 | 0.05 | 0.03 | 55 | 1016.8 |
| 20260505171203 | 8 | 343 | 11.3 | 22.5 | 0.00 | 0.05 | 0.03 | 54 | 1016.9 |
| 20260505171004 | 8 | 342 | 11.3 | 22.5 | 0.00 | 0.05 | 0.03 | 54 | 1016.8 |
| 20260505170804 | 8 | 345 | 11.3 | 22.5 | 0.00 | 0.05 | 0.03 | 53 | 1016.8 |
| 20260505170603 | 8 | 348 | 9.7 | 22.5 | 0.00 | 0.05 | 0.03 | 52 | 1016.8 |
| 20260505170403 | 9 | 354 | 8.0 | 22.5 | 0.00 | 0.05 | 0.03 | 52 | 1016.7 |
| 20260505170203 | 9 | 352 | 6.4 | 19.3 | 0.00 | 0.05 | 0.03 | 51 | 1016.8 |
| 20260505170004 | 9 | 350 | 6.4 | 17.7 | 0.00 | 0.05 | 0.03 | 51 | 1016.8 |
| 20260505165804 | 10 | 345 | 6.4 | 19.3 | 0.00 | 0.05 | 0.03 | 51 | 1016.7 |
| 20260505165603 | 10 | 337 | 8.0 | 20.9 | 0.00 | 0.05 | 0.03 | 51 | 1016.8 |
| 20260505165405 | 10 | 334 | 8.0 | 20.9 | 0.00 | 0.05 | 0.03 | 52 | 1016.7 |
| 20260505165203 | 10 | 333 | 8.0 | 20.9 | 0.00 | 0.05 | 0.03 | 52 | 1016.7 |
| 20260505165003 | 10 | 335 | 8.0 | 20.9 | 0.00 | 0.05 | 0.03 | 53 | 1016.7 |
| 20260505164803 | 10 | 339 | 8.0 | 20.9 | 0.00 | 0.05 | 0.03 | 51 | 1016.7 |
| 20260505164604 | 10 | 341 | 8.0 | 19.3 | 0.00 | 0.05 | 0.03 | 51 | 1016.6 |
| 20260505164404 | 10 | 342 | 8.0 | 19.3 | 0.00 | 0.05 | 0.03 | 49 | 1016.7 |
| 20260505164204 | 10 | 342 | 8.0 | 19.3 | 0.00 | 0.05 | 0.03 | 49 | 1016.7 |
| 20260505164004 | 10 | 340 | 9.7 | 27.4 | 0.00 | 0.05 | 0.03 | 49 | 1016.7 |
| 20260505163804 | 10 | 336 | 11.3 | 27.4 | 0.00 | 0.05 | 0.03 | 50 | 1016.8 |
| 20260505163603 | 10 | 335 | 11.3 | 27.4 | 0.00 | 0.05 | 0.03 | 49 | 1016.7 |
| 20260505163404 | 10 | 335 | 11.3 | 27.4 | 0.00 | 0.05 | 0.03 | 50 | 1016.7 |
| 20260505163204 | 10 | 335 | 11.3 | 27.4 | 0.00 | 0.05 | 0.03 | 50 | 1016.7 |
| 20260505163003 | 10 | 336 | 9.7 | 22.5 | 0.00 | 0.05 | 0.03 | 50 | 1016.7 |
| 20260505162804 | 10 | 337 | 9.7 | 22.5 | 0.00 | 0.05 | 0.03 | 51 | 1016.7 |
| 20260505162605 | 10 | 336 | 11.3 | 20.9 | 0.00 | 0.05 | 0.03 | 49 | 1016.7 |
| 20260505162403 | 10 | 336 | 11.3 | 20.9 | 0.00 | 0.05 | 0.03 | 50 | 1016.6 |
| 20260505162203 | 10 | 337 | 11.3 | 20.9 | 0.00 | 0.05 | 0.03 | 49 | 1016.6 |
| 20260505162004 | 10 | 339 | 9.7 | 20.9 | 0.00 | 0.05 | 0.03 | 48 | 1016.6 |
| 20260505161804 | 10 | 341 | 9.7 | 20.9 | 0.00 | 0.05 | 0.03 | 49 | 1016.5 |
| 20260505161603 | 10 | 342 | 9.7 | 32.2 | 0.00 | 0.05 | 0.03 | 49 | 1016.6 |
| 20260505161404 | 10 | 341 | 11.3 | 32.2 | 0.00 | 0.05 | 0.03 | 47 | 1016.5 |
| 20260505161204 | 10 | 341 | 11.3 | 32.2 | 0.00 | 0.05 | 0.03 | 47 | 1016.6 |
| 20260505161003 | 10 | 341 | 12.9 | 32.2 | 0.00 | 0.05 | 0.03 | 46 | 1016.6 |
| 20260505160804 | 10 | 339 | 11.3 | 32.2 | 0.00 | 0.05 | 0.03 | 46 | 1016.6 |
| 20260505160604 | 10 | 340 | 11.3 | 27.4 | 0.00 | 0.05 | 0.03 | 44 | 1016.6 |
| 20260505160404 | 10 | 343 | 9.7 | 22.5 | 0.00 | 0.05 | 0.03 | 42 | 1016.6 |
| 20260505160203 | 10 | 342 | 11.3 | 22.5 | 0.00 | 0.05 | 0.03 | 44 | 1016.6 |
| 20260505153203 | 10 | 341 | 12.9 | 27.4 | 0.00 | 0.05 | 0.03 | 46 | 1016.5 |
| 20260505153003 | 10 | 339 | 12.9 | 20.9 | 0.00 | 0.05 | 0.03 | 48 | 1016.6 |
| 20260505152804 | 10 | 339 | 12.9 | 22.5 | 0.00 | 0.05 | 0.03 | 48 | 1016.5 |
| 20260505152603 | 10 | 337 | 14.5 | 29.0 | 0.00 | 0.05 | 0.03 | 48 | 1016.5 |
| 20260505152403 | 10 | 337 | 16.1 | 32.2 | 0.00 | 0.05 | 0.03 | 47 | 1016.5 |
| 20260505152203 | 10 | 338 | 16.1 | 32.2 | 0.00 | 0.05 | 0.03 | 48 | 1016.6 |
| 20260505152003 | 10 | 338 | 17.7 | 32.2 | 0.00 | 0.05 | 0.03 | 48 | 1016.5 |
| 20260505151804 | 10 | 338 | 17.7 | 32.2 | 0.00 | 0.05 | 0.03 | 48 | 1016.6 |
| 20260505151604 | 10 | 339 | 17.7 | 32.2 | 0.00 | 0.05 | 0.03 | 50 | 1016.6 |
| 20260505151403 | 10 | 339 | 17.7 | 30.6 | 0.00 | 0.05 | 0.03 | 50 | 1016.5 |
| 20260505151203 | 10 | 337 | 17.7 | 30.6 | 0.00 | 0.05 | 0.03 | 49 | 1016.5 |
| 20260505151003 | 10 | 336 | 17.7 | 30.6 | 0.00 | 0.05 | 0.03 | 49 | 1016.6 |
| 20260505150804 | 10 | 336 | 16.1 | 30.6 | 0.00 | 0.05 | 0.03 | 50 | 1016.6 |
| 20260505150603 | 10 | 336 | 14.5 | 30.6 | 0.00 | 0.05 | 0.03 | 49 | 1016.6 |
| 20260505150403 | 10 | 335 | 14.5 | 29.0 | 0.00 | 0.05 | 0.03 | 51 | 1016.5 |
| 20260505150203 | 10 | 335 | 14.5 | 29.0 | 0.00 | 0.05 | 0.03 | 53 | 1016.6 |
| 20260505140603 | 8 | 347 | 8.0 | 20.9 | 0.00 | 0.05 | 0.03 | 61 | 1016.1 |
| 20260505140403 | 8 | 346 | 9.7 | 20.9 | 0.00 | 0.05 | 0.03 | 61 | 1016.1 |
| 20260505140203 | 8 | 349 | 9.7 | 22.5 | 0.00 | 0.05 | 0.03 | 61 | 1016.1 |
| 20260505130204 | 9 | 339 | 16.1 | 30.6 | 0.00 | 0.05 | 0.03 | 58 | 1016.2 |
| 20260505125004 | 9 | 340 | 14.5 | 29.0 | 0.00 | 0.05 | 0.03 | 61 | 1016.2 |
| 20260505124804 | 8 | 342 | 12.9 | 29.0 | 0.00 | 0.05 | 0.03 | 60 | 1016.2 |
| 20260505124603 | 8 | 345 | 12.9 | 29.0 | 0.00 | 0.05 | 0.03 | 60 | 1016.2 |
| 20260505124403 | 9 | 348 | 11.3 | 25.7 | 0.00 | 0.05 | 0.03 | 60 | 1016.2 |
| 20260505124203 | 9 | 346 | 11.3 | 25.7 | 0.00 | 0.05 | 0.03 | 61 | 1016.2 |
| 20260505124004 | 8 | 343 | 11.3 | 25.7 | 0.00 | 0.05 | 0.03 | 62 | 1016.2 |
| 20260505123803 | 8 | 341 | 12.9 | 25.7 | 0.00 | 0.05 | 0.03 | 63 | 1016.2 |
| 20260505123604 | 8 | 340 | 12.9 | 30.6 | 0.00 | 0.05 | 0.03 | 64 | 1016.2 |
| 20260505123404 | 8 | 340 | 14.5 | 30.6 | 0.00 | 0.05 | 0.03 | 65 | 1016.2 |
| 20260505123203 | 8 | 341 | 14.5 | 30.6 | 0.00 | 0.05 | 0.03 | 63 | 1016.3 |
| 20260505123004 | 8 | 339 | 16.1 | 30.6 | 0.00 | 0.05 | 0.03 | 63 | 1016.2 |
| 20260505122804 | 8 | 338 | 17.7 | 32.2 | 0.00 | 0.05 | 0.03 | 63 | 1016.3 |
| 20260505122603 | 8 | 337 | 16.1 | 32.2 | 0.00 | 0.05 | 0.03 | 63 | 1016.2 |
| 20260505122405 | 8 | 338 | 16.1 | 32.2 | 0.00 | 0.05 | 0.03 | 63 | 1016.2 |
| 20260505122203 | 8 | 337 | 16.1 | 32.2 | 0.00 | 0.05 | 0.03 | 63 | 1016.2 |
| 20260505122003 | 8 | 338 | 17.7 | 32.2 | 0.00 | 0.05 | 0.03 | 63 | 1016.2 |
| 20260505121803 | 8 | 338 | 16.1 | 27.4 | 0.00 | 0.05 | 0.03 | 64 | 1016.1 |
| 20260505121603 | 8 | 338 | 16.1 | 29.0 | 0.00 | 0.05 | 0.03 | 64 | 1016.2 |
| 20260505121405 | 7 | 337 | 16.1 | 29.0 | 0.00 | 0.05 | 0.03 | 64 | 1016.2 |
| 20260505121203 | 7 | 337 | 16.1 | 29.0 | 0.00 | 0.05 | 0.03 | 64 | 1016.1 |
| 20260505121004 | 7 | 336 | 16.1 | 29.0 | 0.00 | 0.05 | 0.03 | 63 | 1016.1 |
| 20260505120803 | 7 | 336 | 16.1 | 29.0 | 0.00 | 0.05 | 0.03 | 63 | 1016.2 |
| 20260505120603 | 7 | 336 | 14.5 | 27.4 | 0.00 | 0.05 | 0.03 | 63 | 1016.1 |
| 20260505120403 | 7 | 336 | 14.5 | 27.4 | 0.00 | 0.05 | 0.03 | 65 | 1016.1 |
| 20260505120203 | 7 | 336 | 12.9 | 20.9 | 0.00 | 0.05 | 0.03 | 65 | 1016.2 |
| 20260505120005 | 7 | 335 | 12.9 | 25.7 | 0.00 | 0.05 | 0.03 | 66 | 1016.2 |
| 20260505115803 | 7 | 335 | 14.5 | 25.7 | 0.00 | 0.05 | 0.03 | 65 | 1016.2 |
| 20260505115604 | 7 | 336 | 14.5 | 29.0 | 0.00 | 0.05 | 0.03 | 65 | 1016.1 |
| 20260505115403 | 7 | 336 | 14.5 | 29.0 | 0.00 | 0.05 | 0.03 | 65 | 1016.1 |
| 20260505115204 | 7 | 336 | 14.5 | 29.0 | 0.00 | 0.05 | 0.03 | 65 | 1016.1 |
| 20260505115005 | 7 | 337 | 14.5 | 29.0 | 0.00 | 0.05 | 0.03 | 65 | 1016.2 |
| 20260505114804 | 7 | 336 | 14.5 | 29.0 | 0.00 | 0.05 | 0.03 | 66 | 1016.2 |
| 20260505114603 | 7 | 335 | 14.5 | 25.7 | 0.00 | 0.05 | 0.03 | 68 | 1016.1 |
| 20260505114403 | 7 | 336 | 16.1 | 25.7 | 0.00 | 0.05 | 0.03 | 68 | 1016.1 |
| 20260505114205 | 7 | 337 | 16.1 | 25.7 | 0.00 | 0.05 | 0.03 | 68 | 1016.1 |
| 20260505114003 | 7 | 337 | 16.1 | 27.4 | 0.00 | 0.05 | 0.03 | 67 | 1016.1 |
| 20260505113804 | 7 | 337 | 17.7 | 29.0 | 0.00 | 0.05 | 0.03 | 68 | 1016.0 |
| 20260505113604 | 7 | 338 | 16.1 | 29.0 | 0.00 | 0.05 | 0.03 | 69 | 1016.0 |
| 20260505113404 | 7 | 337 | 16.1 | 29.0 | 0.00 | 0.05 | 0.03 | 68 | 1016.0 |
| 20260505113203 | 7 | 336 | 17.7 | 29.0 | 0.00 | 0.05 | 0.03 | 69 | 1016.0 |
| 20260505113004 | 7 | 336 | 16.1 | 29.0 | 0.00 | 0.05 | 0.03 | 69 | 1016.0 |
| 20260505112804 | 7 | 336 | 16.1 | 27.4 | 0.00 | 0.05 | 0.03 | 70 | 1016.0 |
| 20260505112603 | 7 | 336 | 17.7 | 38.6 | 0.00 | 0.05 | 0.03 | 70 | 1016.0 |
| 20260505112404 | 7 | 335 | 16.1 | 38.6 | 0.00 | 0.05 | 0.03 | 70 | 1015.9 |
| 20260505112203 | 7 | 335 | 16.1 | 38.6 | 0.00 | 0.05 | 0.03 | 70 | 1015.9 |
| 20260505112003 | 7 | 334 | 17.7 | 38.6 | 0.00 | 0.05 | 0.03 | 69 | 1015.9 |
| 20260505111805 | 7 | 334 | 17.7 | 38.6 | 0.00 | 0.05 | 0.03 | 69 | 1015.9 |
| 20260505111603 | 7 | 334 | 16.1 | 35.4 | 0.00 | 0.05 | 0.03 | 68 | 1015.9 |
| 20260505111403 | 7 | 335 | 16.1 | 35.4 | 0.00 | 0.05 | 0.03 | 67 | 1015.8 |
| 20260505111204 | 7 | 337 | 16.1 | 27.4 | 0.00 | 0.05 | 0.03 | 67 | 1015.9 |
| 20260505111005 | 7 | 338 | 16.1 | 27.4 | 0.00 | 0.05 | 0.03 | 68 | 1015.9 |
| 20260505110804 | 7 | 340 | 14.5 | 27.4 | 0.00 | 0.05 | 0.03 | 67 | 1015.9 |
| 20260505110604 | 7 | 339 | 14.5 | 27.4 | 0.00 | 0.05 | 0.03 | 67 | 1015.9 |
| 20260505110403 | 7 | 339 | 14.5 | 27.4 | 0.00 | 0.05 | 0.03 | 69 | 1015.9 |
| 20260505110203 | 8 | 337 | 14.5 | 27.4 | 0.00 | 0.05 | 0.03 | 69 | 1015.9 |
| 20260505102203 | 8 | 337 | 14.5 | 29.0 | 0.00 | 0.05 | 0.03 | 71 | 1015.8 |
| 20260505102003 | 8 | 337 | 16.1 | 29.0 | 0.00 | 0.05 | 0.03 | 70 | 1015.8 |
| 20260505101803 | 8 | 337 | 17.7 | 29.0 | 0.00 | 0.05 | 0.03 | 70 | 1015.8 |
| 20260505101603 | 8 | 338 | 16.1 | 29.0 | 0.00 | 0.05 | 0.03 | 70 | 1015.8 |
| 20260505101405 | 8 | 338 | 16.1 | 29.0 | 0.00 | 0.05 | 0.03 | 69 | 1015.8 |
| 20260505101203 | 8 | 338 | 16.1 | 35.4 | 0.00 | 0.05 | 0.03 | 69 | 1015.8 |
| 20260505101003 | 8 | 338 | 16.1 | 35.4 | 0.00 | 0.05 | 0.03 | 68 | 1015.8 |
| 20260505100803 | 8 | 338 | 17.7 | 35.4 | 0.00 | 0.05 | 0.03 | 69 | 1015.8 |
| 20260505100603 | 8 | 338 | 17.7 | 35.4 | 0.00 | 0.05 | 0.03 | 70 | 1015.7 |
| 20260505100403 | 8 | 338 | 17.7 | 35.4 | 0.00 | 0.05 | 0.03 | 70 | 1015.8 |
| 20260505100203 | 8 | 338 | 17.7 | 30.6 | 0.00 | 0.05 | 0.03 | 72 | 1015.8 |
| 20260505100004 | 8 | 337 | 17.7 | 32.2 | 0.00 | 0.05 | 0.03 | 74 | 1015.8 |
| 20260505095803 | 7 | 337 | 16.1 | 32.2 | 0.00 | 0.05 | 0.03 | 74 | 1015.7 |
| 20260505095603 | 7 | 336 | 17.7 | 32.2 | 0.00 | 0.05 | 0.03 | 74 | 1015.7 |
| 20260505095403 | 7 | 336 | 17.7 | 32.2 | 0.00 | 0.05 | 0.03 | 73 | 1015.7 |
| 20260505095204 | 7 | 337 | 17.7 | 32.2 | 0.00 | 0.05 | 0.03 | 73 | 1015.7 |